Location: Newark
(30.1000°N, 109.4667°E)
Time: 12:31:15
(UTC+00:00)

Courier 1B Rocket - Pass Details

Date: 19 February 2020
Orbit: 920 x 1202 km, 28.2° (Epoch: 03 April)

Event Time Altitude Azimuth Distance (km) Brightness Sun altitude
Exits shadow 22:04:37 24° 263° (W) 2,051 6.1 -16.6°
Maximum altitude 22:08:54 55° 196° (SSW) 1,299 5.6 -15.7°
Drops below altitude 10° 22:16:11 10° 121° (ESE) 3,038 8.6 -14.1°
Sets 22:19:08 0° 117° (ESE) 4,030 9.6 -13.5°
